Regional Weather Roundup
Issued by NWS

Home | Current Version | Previous Version | Graphics & Text | Print | Product List | Glossary On
Versions: 1 2 3 4 5 6 7 8 9 10 11 12 13 14 15 16 17 18 19 20 21 22 23 24 25 26 27 28 29 30 31 32 33 34 35 36 37 38 39 40 41 42 43 44 45 46 47 48 49 50
000
ASUS43 KDTX 251410
RWRMI
MICHIGAN HOURLY REGIONAL WEATHER ROUNDUP
NATIONAL WEATHER SERVICE DETROIT/PONTIAC MI
900 AM EST THU DEC 25 2014

NOTE: "FAIR" INDICATES FEW OR NO CLOUDS BELOW 12,000 FEET WITH NO
SIGNIFICANT WEATHER AND/OR OBSTRUCTION TO VISIBILITY.

MIZ047>049-052>055-059>063-066>070-074>076-081>083-251500-
SOUTHEAST LOWER MICHIGAN

CITY           SKY/WX    TMP DP  RH WIND       PRES   REMARKS
ADRIAN         CLOUDY    36  33  89 W9        29.87R WCI  29
ALMA           CLOUDY    35  31  85 W10       29.79R WCI  28
ANN ARBOR      CLOUDY    37  33  85 W15       29.83R WCI  28
BAD AXE        CLOUDY    34  33  95 W13G21    29.73R WCI  25
CARO           CLOUDY    36  31  84 W13G20    29.76R WCI  27
DETROIT CITY   CLOUDY    40  32  73 W17       29.82R WCI  31
DETROIT        LGT RAIN  38  33  82 SW15      29.84R WCI  29
FLINT          CLOUDY    38  32  79 W15       29.80R WCI  29
GROSSE ILE     CLOUDY    39  34  81 SW13      29.83R WCI  32
HILLSDALE      CLOUDY    36  35  94 W9G16     29.85R WCI  29
HOWELL         CLOUDY    35  33  94 W12G18    29.81R WCI  26

CITY           SKY/WX    TMP DP  RH WIND       PRES   REMARKS
JACKSON        CLOUDY    36  32  85 W9        29.83R WCI  29
LAMBERTVILLE   CLOUDY    37  32  81 SW10      29.87R WCI  30
LANSING        CLOUDY    36  30  79 W14       29.81R WCI  27
LAPEER         CLOUDY    36  32  85 W13G24    29.78R WCI  27
MASON          CLOUDY    34  32  92 SW6       29.82R WCI  29
MONROE         CLOUDY    37  36  93 W12       29.84R WCI  30
MT. CLEMENS    MIX PCPN  37  37 100 W14       29.79R WCI  29
PONTIAC        LGT RAIN  36  32  85 W10       29.79R WCI  28
PORT HOPE        N/A     35  30  82 W9G20     29.69R WCI  28
PORT HURON     CLOUDY    36  34  93 W7        29.79R WCI  30
TRI CITIES     CLOUDY    37  31  78 W14       29.78R WCI  28
TROY           CLOUDY    39  33  77 W6G17     29.83R
SAGINAW HB     CLOUDY    36  36 100 W12G20    29.77R WCI  27
$$
MIZ043>046-050>051-056>058-064>065-071>073-077>080-251500-
SOUTHWEST LOWER MICHIGAN

CITY           SKY/WX    TMP DP  RH WIND       PRES   REMARKS
BATTLE CREEK   CLOUDY    37  31  78 SW10      29.84R WCI  30
BENTON HARBOR  CLOUDY    34  29  82 SW17G23   29.88R WCI  23
BIG RAPIDS     CLOUDY    34  32  92 W10       29.76R WCI  26
COLDWATER      CLOUDY    35  33  94 SW12      29.86R WCI  26
FREMONT        CLOUDY    35  29  79 W8G17     29.78R WCI  29
HOLLAND        CLOUDY    38  29  70 W14G26    29.84R WCI  30
GRAND RAPIDS   CLOUDY    36  29  75 W15       29.82R WCI  27
IONIA          CLOUDY    37  30  77 W17G28    29.80R WCI  27
KALAMAZOO      CLOUDY    37  28  70 W8        29.85R WCI  31
LUDINGTON      CLOUDY    37  30  75 W12G21    29.78R WCI  30
MARSHALL       CLOUDY    34  32  91 SW7       29.84R WCI  28
MOUNT PLEASANT CLOUDY    36  31  82 CALM      29.76R
MUSKEGON       CLOUDY    38  28  67 W17G23    29.82R WCI  28
SOUTH HAVEN    CLOUDY    38  30  73 W13G18    29.86R WCI  30
$$
MIZ016>042-251500-
NORTHERN LOWER MICHIGAN

CITY           SKY/WX    TMP DP  RH WIND       PRES   REMARKS
ALPENA         CLOUDY    34  30  85 W12G17    29.64R WCI  25
BEAVER ISLAND  CLOUDY    35  30  84 W16G24    29.66R WCI  24
BELLAIRE       CLOUDY    37  31  80 W10       29.69R WCI  29
CADILLAC       CLOUDY    32  29  90 W13G21    29.70R WCI  22
CHARLEVOIX     CLOUDY    36  32  85 W20G29    29.69R WCI  25
FRANKFORT      PTCLDY    36  31  83 W12G22    29.72R WCI  27
GAYLORD        CLOUDY    32  30  92 W13       29.64R WCI  22
GRAYLING       CLOUDY    33  32  95 W8        29.67R WCI  26
HARBOR SPRINGS CLOUDY    35  30  82 W10G22    29.65R WCI  27
HOUGHTON LAKE  CLOUDY    33  29  85 W9        29.69R WCI  25
MANISTEE       MOCLDY    36  27  69 W15G24    29.76R WCI  26
OSCODA         CLOUDY    34  32  93 SW10      29.68R WCI  26
PELLSTON       CLOUDY    35  29  78 W16G26    29.64R WCI  25
ROGERS CITY    CLOUDY    34  32  93 W8        29.63R WCI  27
TRAVERSE CITY  MOCLDY    36  30  79 W14       29.70R WCI  27
$$
MIZ007>008-015-251500-
EASTERN UPPER MICHIGAN

CITY           SKY/WX    TMP DP  RH WIND       PRES   REMARKS
KINROSS        CLOUDY    34  32  93 W15       29.57R WCI  24
MACKINAC ISLAN CLOUDY    34  33  96 W18G26    29.61R WCI  23
NEWBERRY       CLOUDY    32  31  96 SW10      29.59R WCI  24
S. S. MARIE    CLOUDY    34  31  88 W14G24    29.57R WCI  25
MUNISING         N/A     35  29  78 S5        29.61R WCI  31
$$
MIZ004>006-011>014-085-251500-
CENTRAL UPPER MICHIGAN

CITY           SKY/WX    TMP DP  RH WIND       PRES   REMARKS
MANISTIQUE     CLOUDY    33  31  94 MISG      29.63R
ESCANABA       CLOUDY    34  27  75 W9        29.65R WCI  26
MENOMINEE      CLOUDY    32  28  86 SW8       29.69R WCI  25
SAWYER-GWINN   CLOUDY    32  28  86 W13       29.60R WCI  22
$$
MIZ001>003-009>011-084-251500-
WESTERN UPPER MICHIGAN

CITY           SKY/WX    TMP DP  RH WIND       PRES   REMARKS
IRON MOUNTAIN  CLOUDY    32  27  81 W8        29.63R WCI  25
HOUGHTON       CLOUDY    32  29  88 W15       29.56R WCI  22
COPPER HARBOR    N/A     35  31  85 VRB6      29.55R WCI  30
IRONWOOD       CLOUDY    30  28  93 SW10      29.57R WCI  21
$$

ABBREVIATIONS USED IN REMARKS
   TC - TEMPERATURE IN CELSIUS
  WCI - WIND CHILL INDEX
   HX - HEAT INDEX
  VSB - VISIBILITY



USA.gov is the U.S. government's official web portal to all federal, state and local government web resources and services.